TimeEDT,TemperatureF,Dew PointF,Humidity,Sea Level PressureIn,VisibilityMPH,Wind Direction,Wind SpeedMPH,Gust SpeedMPH,PrecipitationIn,Events,Conditions,WindDirDegrees,DateUTC
12:15 AM,78.1,72.7,83,30.18,10.0,SSW,5.8,-,N/A,,Mostly Cloudy,210,2013-07-09 04:15:00
12:35 AM,78.1,72.7,83,30.18,10.0,SSW,6.9,-,N/A,,Mostly Cloudy,200,2013-07-09 04:35:00
12:55 AM,78.1,72.7,83,30.18,10.0,SSW,4.6,-,N/A,,Scattered Clouds,200,2013-07-09 04:55:00
1:15 AM,78.1,72.7,83,30.18,10.0,SSW,3.5,-,N/A,,Clear,210,2013-07-09 05:15:00
1:35 AM,78.1,72.7,83,30.18,10.0,South,5.8,-,N/A,,Scattered Clouds,180,2013-07-09 05:35:00
1:55 AM,78.1,72.7,83,30.17,10.0,South,3.5,-,N/A,,Scattered Clouds,190,2013-07-09 05:55:00
2:15 AM,78.1,72.7,83,30.17,10.0,South,3.5,-,N/A,,Mostly Cloudy,190,2013-07-09 06:15:00
2:35 AM,78.1,72.7,83,30.16,10.0,SW,5.8,-,N/A,Rain,Light Rain,220,2013-07-09 06:35:00
2:55 AM,78.1,72.7,83,30.16,10.0,SSW,5.8,-,N/A,,Scattered Clouds,200,2013-07-09 06:55:00
3:15 AM,78.1,72.7,83,30.16,10.0,SSW,5.8,-,N/A,,Clear,200,2013-07-09 07:15:00
3:35 AM,78.1,72.7,83,30.16,10.0,SSW,5.8,-,N/A,,Scattered Clouds,200,2013-07-09 07:35:00
3:55 AM,78.1,72.7,83,30.15,10.0,South,5.8,-,N/A,,Scattered Clouds,190,2013-07-09 07:55:00
4:15 AM,78.1,72.7,83,30.15,10.0,SW,3.5,-,N/A,,Mostly Cloudy,220,2013-07-09 08:15:00
4:35 AM,78.1,72.7,83,30.15,10.0,SW,10.4,-,N/A,,Scattered Clouds,220,2013-07-09 08:35:00
4:55 AM,78.1,72.7,83,30.16,10.0,South,5.8,-,N/A,,Scattered Clouds,180,2013-07-09 08:55:00
5:15 AM,75.4,70.0,83,30.17,7.0,SW,9.2,-,N/A,Rain,Light Rain,220,2013-07-09 09:15:00
5:35 AM,73.8,68.5,84,30.17,7.0,SSW,5.8,-,N/A,Rain,Rain,210,2013-07-09 09:35:00
5:55 AM,73.0,68.0,84,30.16,7.0,WSW,8.1,-,N/A,Rain,Rain,240,2013-07-09 09:55:00
6:15 AM,73.0,68.0,84,30.18,7.0,West,5.8,-,N/A,Rain,Light Rain,260,2013-07-09 10:15:00
6:35 AM,73.0,68.0,84,30.18,10.0,West,4.6,-,N/A,Rain,Light Rain,280,2013-07-09 10:35:00
6:55 AM,73.0,68.0,84,30.17,4.0,SW,4.6,-,N/A,Rain,Rain,230,2013-07-09 10:55:00
7:15 AM,73.4,68.0,83,30.17,7.0,South,3.5,-,N/A,Rain,Light Rain,190,2013-07-09 11:15:00
7:35 AM,73.2,68.0,84,30.17,10.0,Calm,Calm,-,N/A,Rain,Light Rain,0,2013-07-09 11:35:00
7:55 AM,73.4,68.0,83,30.18,10.0,South,3.5,-,N/A,,Scattered Clouds,190,2013-07-09 11:55:00
8:15 AM,74.1,68.9,84,30.19,10.0,SSW,4.6,-,N/A,,Mostly Cloudy,200,2013-07-09 12:15:00
8:35 AM,74.3,69.1,84,30.19,10.0,South,4.6,-,N/A,,Overcast,190,2013-07-09 12:35:00
8:55 AM,75.0,70.0,84,30.19,10.0,SSE,3.5,-,N/A,,Mostly Cloudy,160,2013-07-09 12:55:00
9:15 AM,75.6,70.3,84,30.19,10.0,SE,4.6,-,N/A,,Mostly Cloudy,140,2013-07-09 13:15:00
9:35 AM,76.5,71.2,84,30.19,10.0,SSE,5.8,-,N/A,,Overcast,160,2013-07-09 13:35:00
9:55 AM,78.1,72.9,84,30.19,10.0,South,5.8,-,N/A,,Mostly Cloudy,170,2013-07-09 13:55:00
10:15 AM,78.1,72.9,84,30.20,10.0,SSE,8.1,-,N/A,,Scattered Clouds,160,2013-07-09 14:15:00
10:35 AM,78.1,72.9,84,30.19,10.0,South,9.2,-,N/A,,Clear,170,2013-07-09 14:35:00
10:55 AM,78.1,72.9,84,30.19,10.0,SSE,6.9,-,N/A,,Scattered Clouds,160,2013-07-09 14:55:00
11:15 AM,80.8,75.4,84,30.19,10.0,SSE,6.9,-,N/A,,Scattered Clouds,160,2013-07-09 15:15:00
11:35 AM,80.8,75.2,83,30.18,10.0,South,5.8,-,N/A,,Scattered Clouds,170,2013-07-09 15:35:00
11:55 AM,83.3,76.6,80,30.17,10.0,SSW,8.1,-,N/A,,Clear,200,2013-07-09 15:55:00
12:15 PM,83.3,76.3,79,30.17,10.0,SSW,9.2,-,N/A,,Scattered Clouds,210,2013-07-09 16:15:00
12:35 PM,83.3,76.3,79,30.16,10.0,SW,5.8,-,N/A,,Scattered Clouds,220,2013-07-09 16:35:00
12:55 PM,83.5,75.9,78,30.16,10.0,SW,9.2,-,N/A,,Scattered Clouds,220,2013-07-09 16:55:00
1:15 PM,84.0,76.5,78,30.16,10.0,SSW,10.4,-,N/A,,Clear,210,2013-07-09 17:15:00
1:35 PM,83.3,76.1,79,30.16,10.0,South,6.9,-,N/A,,Scattered Clouds,190,2013-07-09 17:35:00
1:55 PM,84.7,76.3,76,30.16,10.0,South,9.2,16.1,N/A,,Scattered Clouds,190,2013-07-09 17:55:00
2:15 PM,84.7,75.0,72,30.15,-9999.0,SSW,8.1,-,N/A,,Unknown,210,2013-07-09 18:15:00
2:35 PM,86.2,76.3,72,30.14,10.0,SSW,9.2,-,N/A,,Scattered Clouds,200,2013-07-09 18:35:00
2:55 PM,86.2,76.1,72,30.14,10.0,SSW,9.2,-,N/A,,Scattered Clouds,210,2013-07-09 18:55:00
3:15 PM,86.0,75.4,70,30.12,10.0,SW,9.2,-,N/A,,Clear,220,2013-07-09 19:15:00
3:35 PM,86.7,77.0,73,30.12,10.0,SSE,10.4,-,N/A,,Clear,160,2013-07-09 19:35:00
3:55 PM,86.0,76.1,72,30.12,10.0,SSW,9.2,-,N/A,,Clear,200,2013-07-09 19:55:00
4:15 PM,86.0,76.1,72,30.12,10.0,South,8.1,-,N/A,,Clear,180,2013-07-09 20:15:00
4:35 PM,86.0,76.5,73,30.11,10.0,South,9.2,-,N/A,,Scattered Clouds,190,2013-07-09 20:35:00
4:55 PM,84.6,75.7,75,30.11,10.0,South,6.9,-,N/A,,Scattered Clouds,180,2013-07-09 20:55:00
5:15 PM,83.8,75.4,76,30.11,10.0,South,8.1,-,N/A,,Scattered Clouds,190,2013-07-09 21:15:00
5:35 PM,83.3,75.4,77,30.11,10.0,SSW,5.8,-,N/A,,Scattered Clouds,210,2013-07-09 21:35:00
5:55 PM,80.6,75.2,84,30.11,10.0,West,3.5,-,N/A,Rain,Rain,270,2013-07-09 21:55:00
6:15 PM,78.1,72.7,83,30.11,10.0,Calm,Calm,-,N/A,Rain,Light Rain,0,2013-07-09 22:15:00
6:35 PM,78.1,72.7,83,30.12,10.0,Calm,Calm,-,N/A,Rain,Rain,0,2013-07-09 22:35:00
6:55 PM,78.1,72.7,83,30.12,4.0,Calm,Calm,-,N/A,Rain,Rain,0,2013-07-09 22:55:00
7:15 PM,78.1,72.7,83,30.11,5.0,SE,3.5,-,N/A,Rain,Rain,130,2013-07-09 23:15:00
7:35 PM,78.1,72.7,83,30.11,7.0,SSE,5.8,-,N/A,Rain,Rain,150,2013-07-09 23:35:00
7:55 PM,78.1,72.9,84,30.12,10.0,Calm,Calm,-,N/A,Rain,Light Rain,0,2013-07-09 23:55:00
8:15 PM,78.1,72.9,84,30.11,10.0,SSW,4.6,-,N/A,Rain,Rain,200,2013-07-10 00:15:00
8:35 PM,78.1,72.9,84,30.12,10.0,SSW,4.6,-,N/A,,Clear,200,2013-07-10 00:35:00
8:55 PM,78.1,72.9,84,30.12,10.0,Calm,Calm,-,N/A,Rain,Light Rain,0,2013-07-10 00:55:00
9:15 PM,78.1,72.9,84,30.13,10.0,SSE,4.6,-,N/A,,Clear,150,2013-07-10 01:15:00
9:35 PM,78.1,72.9,84,30.13,10.0,SSE,4.6,-,N/A,,Light Drizzle,150,2013-07-10 01:35:00
9:55 PM,78.1,72.9,84,30.14,10.0,SSE,3.5,-,N/A,,Mostly Cloudy,160,2013-07-10 01:55:00
10:15 PM,78.1,72.9,84,30.14,10.0,SSE,5.8,-,N/A,,Mostly Cloudy,160,2013-07-10 02:15:00
10:35 PM,78.1,72.9,84,30.14,10.0,South,5.8,-,N/A,,Scattered Clouds,170,2013-07-10 02:35:00
10:55 PM,78.1,72.9,84,30.15,10.0,South,6.9,-,N/A,,Scattered Clouds,190,2013-07-10 02:55:00
11:15 PM,78.1,72.9,84,30.15,10.0,SSW,8.1,-,N/A,,Scattered Clouds,200,2013-07-10 03:15:00
11:35 PM,78.1,72.9,84,30.14,10.0,SSW,6.9,-,N/A,,Scattered Clouds,210,2013-07-10 03:35:00
11:55 PM,78.1,72.9,84,30.14,10.0,SSW,6.9,-,N/A,,Clear,210,2013-07-10 03:55:00